Weather History for Ord, NE

Change the Weather History Date:

Friday, July 20, 2012

  Actual Average Record
Temperature  
Mean Temperature 83 °F 75 °F  
Max Temperature 99 °F 88 °F 100 °F (1998)
Min Temperature 66 °F 62 °F 61 °F (2013)
Degree Days  
Heating Degree Days 0 0  
Month to date heating degree days 0 0  
Since 1 June heating degree days 16 37  
Since 1 July heating degree days 0 0  
Cooling Degree Days 18 10  
Month to date cooling degree days 314 187  
Year to date cooling degree days 689 390  
Since 1 June cooling degree days 602 349  
Growing Degree Days 32 (Base 50)    
Moisture  
Dew Point 60 °F    
Average Humidity 56    
Maximum Humidity 93    
Minimum Humidity 18    
Precipitation  
Precipitation 0.00 in 0.09 in 1.66 in (1973)
Month to date precipitation 0.15 1.67  
Year to date precipitation 10.13 14.45  
Sea Level Pressure  
Sea Level Pressure 30.02 in    
Wind  
Wind Speed 9 mph (SSE)    
Max Wind Speed 21 mph    
Max Gust Speed 28 mph    
Visibility 10 miles    
Events      
T = Trace of Precipitation, MM = Missing Value Source: NWS Daily Summary

Daily Weather History Graph

Daily Weather History Graph

Search for Another Location

Airport:

Trip Planner

Search our weather history database for the weather conditions in past years. The results will help you decide how hot, cold, wet, or windy it might be!

Date:

Astronomy

Jul. 20, 2012 Rise Set
Actual Time 6:19 AM CDT 9:04 PM CDT
Civil Twilight 5:46 AM CDT 9:36 PM CDT
Nautical Twilight 5:05 AM CDT 10:17 PM CDT
Astronomical Twilight 4:19 AM CDT 11:04 PM CDT
Moon 8:00 AM CDT (7/20) 9:42 PM CDT (7/20)
Length of Visible Light 15h 50m
Length of Day
14h 45m
Waxing Crescent, 3% of the Moon is Illuminated
Jul 20
Waxing Crescent
Jul 26
First Quarter
Aug 1
Full
Aug 9
Last Quarter
Aug 17
New

Hourly Weather History & Observations

Time (CDT) Temp. Heat Index Dew Point Humidity Pressure Visibility Wind Dir Wind Speed Gust Speed Precip Events Conditions
12:53 AM 79.0 °F - 64.0 °F 60% 30.02 in 10.0 mi South 4.6 mph - N/A   Clear
1:53 AM 80.1 °F 81.2 °F 62.1 °F 54% 29.99 in 10.0 mi ESE 4.6 mph - N/A   Clear
2:53 AM 75.9 °F - 64.9 °F 69% 30.01 in 10.0 mi Calm Calm - N/A   Clear
3:53 AM 72.0 °F - 64.9 °F 78% 30.00 in 10.0 mi SE 4.6 mph - N/A   Clear
4:53 AM 66.9 °F - 64.0 °F 90% 30.02 in 10.0 mi Calm Calm - N/A   Clear
5:53 AM 68.0 °F - 62.1 °F 81% 30.03 in 10.0 mi Calm Calm - N/A   Clear
6:53 AM 68.0 °F - 62.6 °F 83% 30.10 in 10.0 mi Calm Calm - N/A   Clear
7:53 AM 73.0 °F - 63.0 °F 71% 30.07 in 10.0 mi ESE 4.6 mph - N/A   Clear
8:53 AM 77.0 °F - 64.0 °F 64% 30.08 in 10.0 mi SE 4.6 mph - N/A   Clear
9:53 AM 86.0 °F 86.8 °F 63.0 °F 46% 30.08 in 10.0 mi SSW 9.2 mph - N/A   Clear
10:53 AM 91.9 °F 90.3 °F 55.9 °F 30% 30.06 in 10.0 mi SSW 17.3 mph - N/A   Clear
11:53 AM 96.1 °F 94.5 °F 55.9 °F 26% 30.06 in 10.0 mi South 11.5 mph 17.3 mph N/A   Clear
12:53 PM 97.0 °F 95.0 °F 55.0 °F 24% 30.04 in 10.0 mi South 13.8 mph - N/A   Clear
1:53 PM 98.1 °F - 48.9 °F 19% 30.02 in 10.0 mi SSE 16.1 mph 25.3 mph N/A   Clear
2:53 PM 99.0 °F 96.9 °F 54.0 °F 22% 30.01 in 10.0 mi South 12.7 mph 19.6 mph N/A   Clear
3:53 PM 99.0 °F - 52.0 °F 21% 29.99 in 10.0 mi SSE 16.1 mph 21.9 mph N/A   Clear
4:53 PM 98.1 °F 96.4 °F 55.0 °F 24% 29.98 in 10.0 mi SSE 13.8 mph 27.6 mph N/A   Clear
5:53 PM 97.0 °F 94.6 °F 53.1 °F 23% 29.97 in 10.0 mi SSE 18.4 mph 25.3 mph N/A   Clear
6:53 PM 96.1 °F 93.8 °F 54.0 °F 24% 29.97 in 10.0 mi South 15.0 mph 20.7 mph N/A   Clear
7:53 PM 91.0 °F 91.5 °F 62.1 °F 38% 29.97 in 10.0 mi SSE 10.4 mph 18.4 mph N/A   Clear
8:53 PM 88.0 °F 89.6 °F 64.9 °F 46% 29.97 in 10.0 mi SSE 9.2 mph - N/A   Clear
9:53 PM 84.9 °F 86.1 °F 64.0 °F 49% 29.98 in 10.0 mi SE 6.9 mph - N/A   Clear
10:53 PM 84.0 °F 85.4 °F 64.0 °F 51% 29.99 in 10.0 mi SSE 8.1 mph - N/A   Clear
11:53 PM 82.4 °F 83.9 °F 64.4 °F 54% 30.05 in 10.0 mi SSE 5.8 mph - N/A   Clear